{"data":{"norad_id":64870,"epoch":"2026-05-25T03:01:24.060288Z","epoch_age_seconds":60816,"freshness":"FRESH","line1":"1 64870U 25154B   26145.12597292  .00001492  00000+0  14741-3 0  9992","line2":"2 64870  97.6700 209.3326 0004862 350.4765   9.6362 14.93394252 45558","mean_motion":14.93394252,"eccentricity":0.0004862,"inclination_deg":97.67,"raan_deg":209.3326,"arg_perigee_deg":350.4765,"mean_anomaly_deg":9.6362,"bstar":0.00014741,"rev_number":4555,"period_min":96.424637905999,"perigee_km":583.97468239612,"apogee_km":590.74793295051,"semimajor_km":6965.4983076733,"source":"CELESTRAK","updated_at":"2026-05-25T13:38:04.867551Z"}}